Lapse_Rate
5.7 5.4 5.8 5.7 5.4 4.4 4.3 3.5 3.2 3.0 2.8 2.1 2.1 1.9 1.3 1.4 2.0 3.7 4.4 4.4 5.1 5.3 4.9 4.7 4.8 4.9 4.7 4.6 3.8 3.9 3.7 2.8 2.4 2.4 1.8 1.8 1.7 1.4 1.7 3.5 4.5 4.5 4.5
5.0 5.6 4.9 4.3 4.3 4.2 4.1 3.9 3.8 3.5 3.3 3.3 3.4 3.2 2.4 2.1 2.4 3.3 3.5 4.9 4.8 5.1 5.1 5.0 4.8 4.9 4.6 3.9 3.5 3.9 3.3 2.9 2.7 3.3 3.1 3.8 3.1 2.2 1.2 1.4 3.4 4.1 4.3
4.9 4.8 5.0 4.2 3.6 3.9 4.1 4.9 4.8 4.9 4.7 3.8 3.1 2.9 2.5 2.4 2.5 2.6 3.5 4.1 5.3 5.2 5.6 4.8 4.6 4.7 4.8 3.9 4.4 4.5 4.7 3.4 3.2 3.4 4.0 4.3 4.6 2.9 0.9 0.9 1.0 1.6 3.9
4.9 5.5 5.6 5.2 4.8 4.7 4.5 4.9 5.4 5.4 6.0 4.5 3.9 3.4 3.4 3.7 3.4 3.8 3.9 5.9 6.3 5.4 6.5 5.9 5.0 5.2 4.9 4.4 4.4 4.7 4.9 4.2 4.3 3.2 3.2 3.0 2.7 4.1 3.4 1.5 1.3 0.9 1.8
5.3 5.4 5.5 6.1 5.9 5.3 5.0 4.8 4.9 5.1 5.1 4.5 4.5 3.8 3.3 3.7 3.7 3.9 3.4 4.4 6.7 7.4 7.1 6.8 5.2 4.8 5.2 5.2 4.6 4.5 5.0 4.8 4.9 4.8 2.8 2.8 3.0 2.8 2.6 3.2 3.3 1.1 1.0
5.3 5.7 5.9 6.0 5.6 4.9 4.7 4.9 4.7 5.1 4.9 4.6 4.4 4.7 6.1 7.1 6.8 7.1 7.3 5.1 5.0 6.5 7.0 6.8 6.1 5.5 5.4 5.1 4.7 4.9 4.5 4.6 4.9 4.5 3.8 4.0 3.7 3.6 3.6 2.2 1.8 3.0 1.7
5.6 5.8 5.9 5.9 6.0 5.5 5.1 5.7 4.9 4.7 5.1 4.9 4.6 5.0 5.4 6.6 7.2 7.1 7.1 6.9 6.2 5.8 6.5 6.8 6.4 5.9 5.4 5.5 5.0 5.0 4.8 4.9 4.7 4.5 4.4 4.3 3.8 3.3 3.3 3.4 1.9 2.5 1.7
5.8 5.9 5.8 5.5 5.3 5.5 5.4 5.3 5.1 5.0 5.8 5.1 4.9 5.1 5.0 5.7 5.4 6.1 6.8 6.8 6.4 5.9 6.0 6.4 5.9 6.2 5.5 5.0 5.1 4.7 4.8 4.9 4.7 4.2 4.9 3.9 3.7 3.2 3.5 3.4 3.2 2.5 2.1
6.4 6.3 6.1 5.6 5.5 5.6 5.6 5.7 5.0 5.0 5.2 5.1 4.6 4.6 5.3 6.0 6.4 5.6 5.8 6.3 5.1 5.4 5.9 5.9 5.9 5.4 5.3 5.3 4.8 4.9 4.8 4.4 5.0 4.2 3.9 3.4 3.0 3.6 3.1 3.0 4.2 3.6 3.0
6.6 6.0 5.7 5.7 5.5 5.4 5.3 5.0 5.1 5.3 5.1 4.9 4.5 5.1 4.8 6.8 6.8 6.3 6.7 4.6 4.7 5.1 5.1 6.0 5.6 5.0 4.6 4.9 4.9 5.0 4.8 4.7 4.6 4.5 4.3 4.0 3.3 3.4 3.4 3.1 3.4 3.5 3.8
5.8 5.4 5.4 5.3 4.9 4.7 4.7 4.7 4.9 5.0 5.0 5.4 4.8 4.2 4.3 5.5 6.6 6.0 5.6 5.1 4.6 4.5 4.6 5.9 5.5 5.1 4.3 4.8 4.9 4.8 4.7 4.6 4.7 4.4 4.3 3.9 3.6 3.8 3.2 3.0 3.3 2.9 2.7
5.5 5.5 5.4 4.9 4.7 4.5 4.4 4.5 4.9 5.0 5.4 5.7 5.6 4.9 5.0 5.4 6.2 5.9 5.4 5.2 4.5 4.3 5.4 5.5 5.4 5.4 4.4 4.6 4.8 4.5 4.5 5.0 4.4 4.0 4.1 3.7 3.3 3.3 3.2 3.0 2.7 3.0 1.8
5.5 5.3 5.0 4.9 5.0 4.5 4.4 4.8 4.9 5.2 5.7 5.8 6.0 5.8 5.8 5.8 5.9 6.2 5.4 4.9 4.5 4.5 5.5 5.1 5.1 4.9 4.9 4.7 4.9 4.6 4.3 4.4 4.3 4.0 4.2 3.7 3.3 3.1 2.7 2.9 2.6 2.3 1.6
5.6 5.2 4.8 4.5 4.2 4.7 4.9 5.4 5.9 5.3 6.3 6.1 6.0 6.1 5.7 6.1 5.8 6.3 5.5 4.7 4.1 3.8 5.1 5.0 5.0 5.2 4.9 4.6 4.5 4.4 4.2 4.2 3.8 3.7 3.8 2.9 3.2 3.0 2.6 2.1 2.0 1.7 1.4
6.3 6.0 5.7 5.3 5.3 5.4 5.8 6.4 6.4 6.1 6.6 6.6 6.4 6.3 6.0 6.0 5.8 5.8 5.4 4.8 4.2 3.5 3.7 4.4 4.8 4.9 4.8 4.4 4.5 4.1 3.8 3.4 2.5 1.9 2.0 2.2 2.7 2.7 2.6 2.1 1.9 2.0 1.4
6.5 6.6 6.5 6.6 7.1 7.4 7.5 7.5 6.7 6.9 7.0 6.6 6.8 6.3 6.3 6.5 5.9 5.5 5.1 5.0 4.5 3.8 3.3 2.8 3.5 3.8 3.8 4.1 4.1 3.4 2.5 1.8 1.4 1.1 1.2 1.7 1.9 2.5 3.2 3.1 2.8 2.5 1.7
7.3 7.4 7.5 7.7 7.5 7.5 7.8 7.4 7.6 7.7 7.6 7.2 6.7 6.5 6.7 6.3 5.9 5.5 5.0 5.3 5.1 4.1 3.1 2.7 2.6 2.8 3.0 3.8 4.2 3.1 1.3 1.2 0.9 1.1 1.1 1.3 1.8 2.2 2.4 3.1 3.2 3.2 3.3
7.4 7.5 7.6 7.8 7.7 7.8 7.8 7.9 7.9 7.9 7.7 7.3 6.7 6.9 6.9 6.7 6.2 5.8 4.9 5.1 5.2 4.5 3.5 2.8 2.5 2.6 3.1 4.2 3.6 2.1 1.1 0.9 0.7 0.9 1.2 1.4 0.9 1.6 1.2 0.7 0.6 0.8 1.5
7.6 7.9 8.0 8.1 8.1 8.1 8.1 8.0 7.9 7.8 7.6 7.4 7.2 7.3 7.1 6.9 6.6 5.9 5.0 4.9 4.8 4.5 4.2 3.3 3.2 3.2 3.6 3.5 2.9 1.4 0.7 0.4 0.2 0.9 0.8 0.7 0.5 1.8 1.9 0.7 0.3 0.8 2.4
7.5 7.8 8.1 8.2 8.1 8.1 8.2 8.1 7.9 7.9 7.7 7.8 7.8 7.5 7.1 7.0 7.4 5.6 5.1 4.9 4.9 4.9 4.6 3.9 3.4 4.0 3.7 3.8 3.0 1.4 0.5 -0.1 0.3 1.0 2.0 2.9 2.5 3.3 2.7 1.5 1.2 1.7 2.4
8.1 8.3 8.1 8.2 8.3 8.4 8.2 8.1 8.1 8.0 8.1 8.0 7.9 7.6 7.0 7.2 6.9 5.1 5.0 5.2 4.9 4.4 3.8 3.2 3.5 4.1 4.3 4.0 3.3 2.4 1.0 0.6 1.2 2.2 2.9 3.7 4.1 3.7 3.5 3.2 2.4 1.8 1.7
7.9 8.1 8.1 7.9 7.9 7.9 8.1 7.9 7.5 7.8 8.0 7.8 7.8 7.4 6.7 6.8 6.2 4.8 4.6 4.9 4.4 3.9 3.6 3.6 3.7 4.1 4.2 4.4 4.4 3.9 2.8 2.5 1.6 3.0 3.8 4.1 4.4 4.1 3.8 3.4 4.5 3.2 1.8
8.0 8.2 8.1 8.0 7.5 7.7 8.0 8.2 7.7 8.2 8.3 8.1 7.6 7.0 6.6 6.5 5.5 4.5 4.9 4.1 3.8 4.1 3.8 3.9 3.8 4.0 4.6 4.7 4.9 4.7 4.1 3.7 2.8 3.5 4.4 4.7 4.4 4.5 4.8 5.2 3.9 2.6 1.6
8.0 8.2 8.2 7.4 6.9 7.2 7.3 7.5 7.7 7.9 8.1 7.4 6.6 6.2 6.2 6.4 5.7 4.3 4.6 4.1 4.1 4.2 4.1 3.6 3.7 4.3 5.0 5.6 5.3 4.3 4.0 4.4 4.3 4.9 4.8 4.9 4.8 4.7 4.4 4.2 2.6 2.0 1.9
8.2 7.5 7.1 7.4 6.5 6.5 6.3 6.3 7.1 7.4 7.4 7.1 6.2 5.3 6.1 6.0 4.9 4.0 4.2 4.2 4.1 4.2 3.6 3.5 3.8 3.9 4.3 4.5 4.2 3.8 4.0 4.1 3.7 3.6 3.7 2.8 2.2 2.1 2.1 1.6 1.3 1.2 1.4
6.6 6.7 6.7 6.7 6.1 6.1 6.0 6.1 6.5 7.1 7.1 6.9 6.3 4.9 6.1 6.0 4.7 4.1 4.1 4.5 4.5 4.9 4.7 4.3 4.0 4.1 4.4 4.9 4.8 4.7 4.6 4.7 4.3 3.0 2.1 1.5 1.5 1.3 1.2 1.2 1.2 1.7 1.6
Wind_Speed
5 7 7 7 8 7 7 7 7 7 5 4 5 5 5 4 4 7 12 13 10 9 8 5 5 6 6 7 5 1 6 3 3 4 4 3 4 5 3 1 7 10 13
9 9 9 8 7 6 7 7 7 7 5 3 3 2 4 3 4 5 10 13 12 11 7 5 5 6 3 5 7 6 3 2 6 2 3 3 1 2 3 3 2 3 12
10 11 10 8 7 8 7 7 7 7 6 7 4 4 3 3 4 4 4 5 13 12 11 8 5 6 5 6 7 7 9 5 5 4 4 2 2 2 1 2 3 3 3
10 10 8 8 7 6 7 8 8 7 7 7 7 6 4 6 3 5 5 7 12 10 8 7 6 6 5 5 7 7 7 4 7 2 2 1 3 3 1 1 1 2 2
9 9 8 7 7 7 7 7 7 7 7 7 6 4 5 4 4 5 8 8 7 11 10 6 5 5 6 7 8 7 9 7 6 6 3 2 1 2 3 3 2 2 1
7 6 5 5 5 6 6 6 7 6 7 7 7 8 9 10 9 9 8 5 5 7 6 7 5 5 6 8 8 9 10 9 7 7 4 4 4 3 2 3 2 3 1
6 6 6 6 6 7 7 6 7 7 6 7 7 7 8 11 10 10 8 8 6 7 8 6 6 4 7 8 9 10 8 8 7 9 8 6 3 3 3 2 3 2 1
5 5 5 5 5 6 6 6 6 7 7 7 7 8 7 6 8 10 9 8 7 8 11 10 6 7 8 8 9 7 7 7 7 7 7 5 4 3 3 4 4 2 1
3 2 3 3 4 5 6 5 6 6 7 7 6 6 8 10 13 14 11 8 10 9 12 10 8 7 7 9 10 7 8 8 9 9 7 5 5 6 4 4 5 5 4
3 4 5 5 5 6 6 7 7 7 7 8 6 7 8 10 12 11 14 12 13 12 12 11 8 7 7 8 8 6 6 8 6 5 8 7 4 5 4 5 4 3 3
5 5 4 4 4 5 6 6 7 7 7 7 7 7 7 9 11 11 13 13 13 13 11 11 8 7 8 7 7 6 8 8 7 6 8 9 7 6 5 4 4 4 3
5 5 3 3 6 7 7 7 6 7 9 9 9 7 8 8 10 12 14 13 13 12 11 9 7 6 6 8 7 7 7 8 8 9 10 8 6 8 7 6 7 6 4
8 7 5 6 6 7 7 7 7 7 10 12 10 10 10 9 10 12 14 13 13 13 11 5 5 5 6 6 7 8 8 7 7 7 8 8 9 7 6 6 6 5 3
8 7 7 7 7 7 7 7 9 6 12 13 8 10 11 10 9 12 14 13 13 12 11 5 5 5 5 6 8 7 7 6 6 6 7 8 9 9 8 6 7 6 6
8 8 9 9 9 9 7 9 8 10 13 14 9 11 11 9 8 11 13 12 12 10 9 5 4 5 5 5 6 7 7 7 5 5 5 5 7 11 12 8 8 10 6
10 12 14 15 14 13 12 13 13 14 13 9 12 13 12 10 9 11 12 12 11 9 7 5 4 4 3 8 11 8 6 7 8 6 5 5 10 11 15 13 16 13 12
13 14 13 14 14 14 14 13 15 12 12 10 13 13 12 8 11 12 12 11 10 8 7 5 3 3 3 7 11 14 7 7 8 8 8 6 5 10 10 16 16 13 9
15 13 12 13 16 15 14 13 11 12 12 12 13 13 9 11 11 12 12 10 8 7 5 4 3 3 4 8 15 15 9 8 8 8 9 10 10 9 13 13 13 10 8
13 13 13 14 14 14 13 13 13 12 12 13 13 10 10 12 12 12 12 9 8 6 5 3 3 4 3 15 16 13 9 9 10 8 10 11 12 20 21 14 14 14 11
16 16 16 15 15 14 13 14 14 13 12 12 12 11 11 12 11 11 11 7 7 5 2 1 2 8 8 15 14 13 9 11 9 10 11 19 15 21 20 13 13 13 9
16 16 15 14 15 14 14 15 14 13 13 13 13 11 11 12 9 9 9 7 2 1 3 6 6 7 8 9 14 17 8 10 9 8 8 8 20 18 19 16 9 12 11
17 16 15 15 15 14 13 15 15 14 13 14 12 12 10 10 8 8 8 0 1 2 3 5 5 4 5 10 13 17 17 17 12 10 8 12 21 20 18 12 22 21 15
15 14 15 16 15 14 13 15 15 14 14 12 11 11 11 10 8 6 4 2 3 2 2 4 4 4 4 5 16 21 22 20 11 9 15 22 21 20 17 21 20 16 6
15 15 15 16 17 15 15 15 15 14 13 12 11 10 9 11 7 4 3 3 3 3 2 4 4 4 5 7 8 9 12 20 14 18 13 15 16 16 14 11 8 5 5
14 15 14 15 17 17 17 16 15 13 12 10 9 8 7 7 6 4 3 3 3 4 4 3 4 6 6 6 11 12 10 9 13 13 9 7 7 7 7 5 5 5 5
15 14 15 16 17 17 17 17 13 11 10 9 7 5 7 6 4 2 2 6 7 11 10 11 7 5 11 19 20 20 23 24 22 9 8 7 6 7 6 6 5 5 7
Wind_Direction
97 78 69 70 73 43 47 33 27 5 8 356 353 346 339 324 322 327 332 318 319 320 239 191 178 182 188 198 178 182 137 93 116 115 74 40 40 40 9 138 166 167 165
45 46 44 40 46 52 40 30 17 3 358 359 326 323 322 316 301 330 313 328 322 311 269 201 186 174 169 183 176 163 137 103 174 126 92 167 58 83 7 18 356 188 163
58 39 32 24 42 35 24 21 6 1 355 350 337 328 307 322 333 324 305 302 309 309 306 211 175 182 177 195 190 182 182 161 195 198 140 159 170 117 46 12 0 26 228
59 44 27 33 32 25 28 15 7 359 360 352 352 345 322 325 295 310 304 301 291 293 289 243 185 181 177 195 200 193 197 147 184 191 207 62 141 156 147 259 298 347 356
65 52 34 27 12 6 16 17 6 359 349 353 351 334 333 303 303 309 310 307 307 289 296 279 210 188 182 196 198 199 202 200 184 191 143 84 35 91 137 164 193 304 253
63 52 31 27 9 10 14 8 359 344 345 350 339 332 335 326 321 319 315 299 300 295 261 264 232 202 202 189 197 206 202 206 197 195 168 173 171 167 177 122 130 195 161
50 31 14 8 9 3 353 355 357 331 338 338 331 328 328 324 315 317 308 307 304 302 292 251 246 217 200 203 197 196 200 194 200 196 194 187 219 156 130 137 121 152 124
41 33 14 359 358 348 335 336 341 333 337 336 327 327 311 325 318 308 303 295 296 291 288 279 246 238 198 195 198 190 190 196 197 193 197 181 186 163 166 144 146 113 151
30 3 316 315 313 311 316 319 326 319 315 313 310 320 324 318 327 312 300 300 292 281 282 270 256 240 204 196 192 196 195 195 199 197 198 191 184 195 188 171 161 143 171
310 287 280 289 292 304 311 328 332 321 311 310 300 312 316 316 319 312 305 300 294 284 273 268 246 236 211 188 183 187 188 188 189 180 183 188 174 180 173 169 166 163 140
298 300 324 332 326 330 334 327 327 321 313 310 299 296 302 312 317 314 307 302 298 296 266 258 234 221 214 195 188 184 181 189 182 175 184 190 174 185 183 181 182 169 150
329 313 306 352 358 342 336 327 320 325 320 307 307 301 300 303 317 317 307 305 299 294 271 255 234 229 205 189 187 187 187 190 180 181 179 188 179 185 182 179 181 182 148
337 322 334 350 344 334 325 317 316 313 325 311 304 312 311 304 314 316 311 310 309 296 281 251 240 224 208 199 191 186 186 189 180 182 188 182 174 180 174 178 167 150 118
321 345 1 334 319 317 313 316 317 308 322 314 296 312 308 303 304 314 313 310 310 302 291 252 237 228 208 203 185 177 179 186 186 175 183 171 182 177 168 156 152 136 123
16 347 335 326 324 325 317 318 319 320 316 311 306 315 305 296 300 311 313 305 305 303 304 298 264 235 206 202 185 172 177 160 139 133 138 152 165 162 165 155 151 138 127
346 334 330 329 325 324 321 322 320 316 311 303 314 313 305 303 308 310 312 303 300 296 296 297 288 249 218 199 183 156 148 141 139 136 124 130 139 156 163 162 159 155 148
334 327 325 323 319 318 318 315 311 310 314 310 313 308 304 301 315 310 310 300 299 296 288 282 270 258 245 229 184 154 141 135 134 133 129 121 137 134 135 133 122 123 134
328 325 322 318 314 313 312 309 309 312 310 310 306 304 301 308 313 309 309 304 299 290 291 272 252 232 234 205 149 135 120 120 121 126 129 128 123 126 122 110 93 79 71
321 315 315 310 308 310 310 309 310 311 307 304 303 303 307 311 308 311 308 304 297 285 271 268 234 210 193 133 138 124 118 117 109 115 116 121 118 128 120 110 106 92 88
318 319 320 317 312 312 313 312 309 306 305 305 306 305 305 304 304 310 304 301 286 281 280 94 91 122 114 131 139 125 124 114 113 114 122 124 127 127 118 111 116 113 116
315 317 316 312 311 313 314 309 309 309 308 305 303 303 303 304 302 308 301 295 298 28 63 73 64 81 104 132 142 134 128 129 124 123 124 130 130 128 123 119 117 125 126
320 320 316 312 311 312 310 306 303 304 303 301 298 300 300 305 306 305 297 144 122 100 93 97 89 86 106 132 139 134 128 131 125 122 120 123 125 123 120 116 129 127 119
318 318 314 311 311 310 308 305 303 305 302 302 302 299 299 302 301 296 279 200 180 164 132 113 105 102 109 124 136 130 124 118 112 118 119 121 120 123 124 128 129 125 123
320 318 319 314 310 313 310 302 300 301 300 298 296 294 298 305 305 289 236 214 188 166 140 123 120 121 125 126 121 113 110 109 110 118 115 114 115 116 118 113 112 106 108
318 321 314 313 311 314 312 304 299 296 294 291 292 286 294 295 294 283 239 216 206 185 154 139 144 141 129 130 129 127 127 123 121 117 108 102 103 103 102 97 91 88 94
321 316 315 315 317 317 313 308 300 294 292 293 293 278 297 297 278 277 254 230 204 181 156 142 135 118 126 132 130 130 129 129 127 114 118 117 118 120 123 119 110 103 113